{"data":{"norad_id":49760,"intl_designator":"2021-115AN","name":"STARLINK-3199","alt_names":[],"object_type":"PAYLOAD","status":"ACTIVE","operator":null,"country":"US","launch_date":"2021-12-02","launch_site_code":"AFETR","launch_vehicle":null,"mission":null,"orbit_class":"UNKNOWN","rcs_meters":null,"size_class":null,"mass_kg":null,"dimensions":null,"purposes":["comms"],"wikipedia_slug":null,"has_3d_model":false,"image_url":null,"decayed_at":null,"tle_current":{"epoch":"2026-09-20T04:55:47.193312Z","epoch_age_seconds":70482,"freshness":"FRESH","line1":"1 49760U 21115AN  26263.20540733  .00000746  00000+0  33222-4 0  9991","line2":"2 49760  53.1604 330.7585 0001086  80.8738 279.2387 15.34390083265251","mean_motion":15.34390083,"eccentricity":0.0001086,"inclination_deg":53.1604,"raan_deg":330.7585,"arg_perigee_deg":80.8738,"mean_anomaly_deg":279.2387,"bstar":3.3222e-5,"rev_number":26525,"period_min":93.848364633884,"perigee_km":461.98979732864,"apogee_km":463.4756342309,"semimajor_km":6840.8697157798,"source":"CELESTRAK","updated_at":"2026-09-20T09:00:39.410723Z"}}}